Time,TemperatureF,DewpointF,PressureIn,WindDirection,WindDirectionDegrees,WindSpeedMPH,WindSpeedGustMPH,Humidity,HourlyPrecipIn,Conditions,Clouds,dailyrainin,SoftwareType,DateUTC
2014-09-23 00:01:00,63.7,58.8,29.83,North,0,0.0,0.0,84,0.00,,,0.00,WUHU216HW,2014-09-23 04:01:00,
2014-09-23 00:02:00,63.7,58.8,29.83,North,0,0.0,0.0,84,0.00,,,0.00,WUHU216HW,2014-09-23 04:02:00,
2014-09-23 00:04:00,63.7,58.8,29.83,North,0,0.0,0.0,84,0.00,,,0.00,WUHU216HW,2014-09-23 04:04:00,
2014-09-23 00:07:00,63.7,58.8,29.83,North,0,0.0,0.0,84,0.00,,,0.00,WUHU216HW,2014-09-23 04:07:00,
2014-09-23 00:09:00,63.5,58.6,29.83,North,0,0.0,0.0,84,0.00,,,0.00,WUHU216HW,2014-09-23 04:09:00,
2014-09-23 00:12:00,63.5,58.6,29.83,North,0,0.0,0.0,84,0.00,,,0.00,WUHU216HW,2014-09-23 04:12:00,
2014-09-23 00:14:00,63.5,58.6,29.83,North,0,0.0,0.0,84,0.00,,,0.00,WUHU216HW,2014-09-23 04:14:00,
2014-09-23 00:17:00,63.4,58.4,29.83,North,0,0.0,0.0,84,0.00,,,0.00,WUHU216HW,2014-09-23 04:17:00,
2014-09-23 00:18:00,63.5,58.6,29.83,North,0,0.0,0.0,84,0.00,,,0.00,WUHU216HW,2014-09-23 04:18:00,
2014-09-23 00:19:00,63.5,58.6,29.84,North,0,0.0,0.0,84,0.00,,,0.00,WUHU216HW,2014-09-23 04:19:00,
2014-09-23 00:20:00,63.5,58.6,29.84,North,0,0.0,0.0,84,0.00,,,0.00,WUHU216HW,2014-09-23 04:20:00,
2014-09-23 00:22:00,63.5,58.6,29.84,North,0,0.0,0.0,84,0.00,,,0.00,WUHU216HW,2014-09-23 04:22:00,
2014-09-23 00:23:00,63.5,58.6,29.84,North,0,0.0,0.0,84,0.00,,,0.00,WUHU216HW,2014-09-23 04:23:00,
2014-09-23 00:24:00,63.5,58.6,29.83,North,0,0.0,0.0,84,0.00,,,0.00,WUHU216HW,2014-09-23 04:24:00,
2014-09-23 00:25:00,63.5,58.6,29.83,North,0,0.0,0.0,84,0.00,,,0.00,WUHU216HW,2014-09-23 04:25:00,
2014-09-23 00:27:00,63.5,58.6,29.83,North,0,0.0,0.0,84,0.00,,,0.00,WUHU216HW,2014-09-23 04:27:00,
2014-09-23 00:28:00,63.5,58.6,29.83,North,0,0.0,0.0,84,0.00,,,0.00,WUHU216HW,2014-09-23 04:28:00,
2014-09-23 00:29:00,63.5,58.6,29.84,North,0,0.0,0.0,84,0.00,,,0.00,WUHU216HW,2014-09-23 04:29:00,
2014-09-23 00:30:00,63.5,58.6,29.84,North,0,0.0,0.0,84,0.00,,,0.00,WUHU216HW,2014-09-23 04:30:00,
2014-09-23 00:33:00,63.4,58.4,29.84,North,0,0.0,0.0,84,0.00,,,0.00,WUHU216HW,2014-09-23 04:33:00,
2014-09-23 00:35:00,63.4,58.4,29.84,North,0,0.0,0.0,84,0.00,,,0.00,WUHU216HW,2014-09-23 04:35:00,
2014-09-23 00:38:00,63.4,58.4,29.84,North,0,0.0,0.0,84,0.00,,,0.00,WUHU216HW,2014-09-23 04:38:00,
2014-09-23 00:40:00,63.4,58.4,29.84,North,0,0.0,0.0,84,0.00,,,0.00,WUHU216HW,2014-09-23 04:40:00,
2014-09-23 00:43:00,63.4,58.4,29.84,North,0,0.0,0.0,84,0.00,,,0.00,WUHU216HW,2014-09-23 04:43:00,
2014-09-23 00:45:00,63.4,58.4,29.84,North,0,0.0,0.0,84,0.00,,,0.00,WUHU216HW,2014-09-23 04:45:00,
2014-09-23 00:48:00,63.2,58.2,29.84,North,0,0.0,0.0,84,0.00,,,0.00,WUHU216HW,2014-09-23 04:48:00,
2014-09-23 00:50:00,63.2,58.2,29.84,North,0,0.0,0.0,84,0.00,,,0.00,WUHU216HW,2014-09-23 04:50:00,
2014-09-23 00:53:00,63.2,58.2,29.84,North,0,0.0,0.0,84,0.00,,,0.00,WUHU216HW,2014-09-23 04:53:00,
2014-09-23 00:55:00,63.0,58.1,29.84,North,0,0.0,0.0,84,0.00,,,0.00,WUHU216HW,2014-09-23 04:55:00,
2014-09-23 00:58:00,63.0,58.1,29.84,North,0,0.0,0.0,84,0.00,,,0.00,WUHU216HW,2014-09-23 04:58:00,
2014-09-23 01:00:00,63.0,58.1,29.84,North,0,0.0,0.0,84,0.00,,,0.00,WUHU216HW,2014-09-23 05:00:00,
2014-09-23 01:03:00,63.0,58.1,29.84,North,0,0.0,0.0,84,0.00,,,0.00,WUHU216HW,2014-09-23 05:03:00,
2014-09-23 01:04:00,63.0,58.4,29.84,North,0,0.0,0.0,85,0.00,,,0.00,WUHU216HW,2014-09-23 05:04:00,
2014-09-23 01:05:00,63.0,58.4,29.84,North,0,0.0,0.0,85,0.00,,,0.00,WUHU216HW,2014-09-23 05:05:00,
2014-09-23 01:09:00,62.8,58.2,29.84,North,0,0.0,0.0,85,0.00,,,0.00,WUHU216HW,2014-09-23 05:09:00,
2014-09-23 01:10:00,62.8,58.2,29.84,North,0,0.0,0.0,85,0.00,,,0.00,WUHU216HW,2014-09-23 05:10:00,
2014-09-23 01:11:00,62.8,58.2,29.84,North,0,0.0,0.0,85,0.00,,,0.00,WUHU216HW,2014-09-23 05:11:00,
2014-09-23 01:14:00,62.8,58.2,29.84,North,0,0.0,1.1,85,0.00,,,0.00,WUHU216HW,2014-09-23 05:14:00,
2014-09-23 01:15:00,62.8,58.2,29.84,North,0,0.0,1.1,85,0.00,,,0.00,WUHU216HW,2014-09-23 05:15:00,
2014-09-23 01:16:00,62.8,58.2,29.84,North,0,0.0,1.1,85,0.00,,,0.00,WUHU216HW,2014-09-23 05:16:00,
2014-09-23 01:19:00,62.8,58.2,29.84,North,0,0.0,1.1,85,0.00,,,0.00,WUHU216HW,2014-09-23 05:19:00,
2014-09-23 01:20:00,62.8,58.2,29.84,North,0,0.0,1.1,85,0.00,,,0.00,WUHU216HW,2014-09-23 05:20:00,
2014-09-23 01:21:00,62.8,58.2,29.85,North,0,0.0,1.1,85,0.00,,,0.00,WUHU216HW,2014-09-23 05:21:00,
2014-09-23 01:24:00,62.8,58.2,29.85,North,0,0.0,0.0,85,0.00,,,0.00,WUHU216HW,2014-09-23 05:24:00,
2014-09-23 01:25:00,62.8,58.2,29.85,North,0,0.0,0.0,85,0.00,,,0.00,WUHU216HW,2014-09-23 05:25:00,
2014-09-23 01:26:00,62.8,58.2,29.85,North,0,0.0,0.0,85,0.00,,,0.00,WUHU216HW,2014-09-23 05:26:00,
2014-09-23 01:29:00,62.6,58.1,29.85,SE,135,0.0,0.9,85,0.00,,,0.00,WUHU216HW,2014-09-23 05:29:00,
2014-09-23 01:30:00,62.6,57.7,29.85,SE,135,0.0,0.9,84,0.00,,,0.00,WUHU216HW,2014-09-23 05:30:00,
2014-09-23 01:31:00,62.6,58.1,29.85,SE,135,0.0,0.9,85,0.00,,,0.00,WUHU216HW,2014-09-23 05:31:00,
2014-09-23 01:34:00,62.6,57.7,29.85,SE,135,0.0,0.9,84,0.00,,,0.00,WUHU216HW,2014-09-23 05:34:00,
2014-09-23 01:35:00,62.6,57.7,29.85,SSE,158,0.0,0.9,84,0.00,,,0.00,WUHU216HW,2014-09-23 05:35:00,
2014-09-23 01:36:00,62.6,57.7,29.85,SE,135,0.0,0.9,84,0.00,,,0.00,WUHU216HW,2014-09-23 05:36:00,
2014-09-23 01:39:00,62.5,57.5,29.85,ESE,113,0.7,0.7,84,0.00,,,0.00,WUHU216HW,2014-09-23 05:39:00,
2014-09-23 01:41:00,62.5,57.5,29.85,ESE,113,0.0,0.7,84,0.00,,,0.00,WUHU216HW,2014-09-23 05:41:00,
2014-09-23 01:44:00,62.5,57.5,29.85,East,90,0.4,0.9,84,0.00,,,0.00,WUHU216HW,2014-09-23 05:44:00,
2014-09-23 01:46:00,62.5,57.5,29.85,SSE,158,0.0,0.9,84,0.00,,,0.00,WUHU216HW,2014-09-23 05:46:00,
2014-09-23 01:50:00,62.5,57.5,29.86,SE,135,0.4,1.3,84,0.00,,,0.00,WUHU216HW,2014-09-23 05:50:00,
2014-09-23 01:51:00,62.5,57.5,29.86,SSE,158,0.4,1.3,84,0.00,,,0.00,WUHU216HW,2014-09-23 05:51:00,
2014-09-23 01:53:00,62.5,57.5,29.85,NE,45,0.9,1.3,84,0.00,,,0.00,WUHU216HW,2014-09-23 05:53:00,
2014-09-23 01:55:00,62.5,57.5,29.85,ESE,113,0.2,1.3,84,0.00,,,0.00,WUHU216HW,2014-09-23 05:55:00,
2014-09-23 01:56:00,62.5,57.5,29.85,ESE,113,0.7,1.3,84,0.00,,,0.00,WUHU216HW,2014-09-23 05:56:00,
2014-09-23 01:58:00,62.5,57.5,29.85,ESE,113,0.0,1.1,84,0.00,,,0.00,WUHU216HW,2014-09-23 05:58:00,
2014-09-23 02:00:00,62.6,57.7,29.85,ESE,113,0.0,0.9,84,0.00,,,0.00,WUHU216HW,2014-09-23 06:00:00,
2014-09-23 02:01:00,62.6,57.7,29.85,ESE,113,0.0,0.9,84,0.00,,,0.00,WUHU216HW,2014-09-23 06:01:00,
2014-09-23 02:02:00,62.6,57.7,29.85,SE,135,0.0,0.9,84,0.00,,,0.00,WUHU216HW,2014-09-23 06:02:00,
2014-09-23 02:03:00,62.6,57.3,29.85,South,180,0.0,0.9,83,0.00,,,0.00,WUHU216HW,2014-09-23 06:03:00,
2014-09-23 02:05:00,62.6,57.3,29.85,South,180,0.0,0.7,83,0.00,,,0.00,WUHU216HW,2014-09-23 06:05:00,
2014-09-23 02:06:00,62.6,57.3,29.85,South,180,0.0,0.7,83,0.00,,,0.00,WUHU216HW,2014-09-23 06:06:00,
2014-09-23 02:07:00,62.6,57.3,29.85,South,180,0.0,0.7,83,0.00,,,0.00,WUHU216HW,2014-09-23 06:07:00,
2014-09-23 02:08:00,62.6,57.3,29.85,South,180,0.0,0.0,83,0.00,,,0.00,WUHU216HW,2014-09-23 06:08:00,
2014-09-23 02:10:00,62.6,57.3,29.85,South,180,0.0,0.0,83,0.00,,,0.00,WUHU216HW,2014-09-23 06:10:00,
2014-09-23 02:11:00,62.6,57.3,29.85,ESE,113,0.4,0.4,83,0.00,,,0.00,WUHU216HW,2014-09-23 06:11:00,
2014-09-23 02:12:00,62.6,57.3,29.85,SE,135,0.2,0.4,83,0.00,,,0.00,WUHU216HW,2014-09-23 06:12:00,
2014-09-23 02:13:00,62.6,57.3,29.85,ENE,68,0.4,0.7,83,0.00,,,0.00,WUHU216HW,2014-09-23 06:13:00,
2014-09-23 02:15:00,62.6,57.3,29.85,ESE,113,1.1,1.1,83,0.00,,,0.00,WUHU216HW,2014-09-23 06:15:00,
2014-09-23 02:16:00,62.6,57.1,29.85,ENE,68,1.1,1.1,82,0.00,,,0.00,WUHU216HW,2014-09-23 06:16:00,
2014-09-23 02:17:00,62.6,57.3,29.85,ENE,68,0.7,1.1,83,0.00,,,0.00,WUHU216HW,2014-09-23 06:17:00,
2014-09-23 02:18:00,62.6,57.3,29.85,NE,45,1.3,1.3,83,0.00,,,0.00,WUHU216HW,2014-09-23 06:18:00,
2014-09-23 02:20:00,62.6,57.3,29.85,ENE,68,0.0,1.3,83,0.00,,,0.00,WUHU216HW,2014-09-23 06:20:00,
2014-09-23 02:22:00,62.6,57.3,29.85,East,90,0.4,1.3,83,0.00,,,0.00,WUHU216HW,2014-09-23 06:22:00,
2014-09-23 02:23:00,62.8,57.3,29.85,ENE,68,0.4,1.3,82,0.00,,,0.00,WUHU216HW,2014-09-23 06:23:00,
2014-09-23 02:25:00,62.8,57.3,29.85,ENE,68,0.4,1.3,82,0.00,,,0.00,WUHU216HW,2014-09-23 06:25:00,
2014-09-23 02:27:00,62.8,57.3,29.85,East,90,0.4,1.3,82,0.00,,,0.00,WUHU216HW,2014-09-23 06:27:00,
2014-09-23 02:28:00,62.8,56.9,29.85,East,90,1.1,1.1,81,0.00,,,0.00,WUHU216HW,2014-09-23 06:28:00,
2014-09-23 02:30:00,62.8,56.9,29.85,ESE,113,0.9,1.8,81,0.00,,,0.00,WUHU216HW,2014-09-23 06:30:00,
2014-09-23 02:32:00,62.8,56.9,29.85,ESE,113,1.1,1.8,81,0.00,,,0.00,WUHU216HW,2014-09-23 06:32:00,
2014-09-23 02:33:00,62.8,56.9,29.85,ENE,68,0.7,1.8,81,0.00,,,0.00,WUHU216HW,2014-09-23 06:33:00,
2014-09-23 02:35:00,62.8,56.9,29.85,East,90,0.7,1.8,81,0.00,,,0.00,WUHU216HW,2014-09-23 06:35:00,
2014-09-23 02:37:00,62.8,56.9,29.85,SE,135,2.5,2.5,81,0.00,,,0.00,WUHU216HW,2014-09-23 06:37:00,
2014-09-23 02:39:00,63.0,56.7,29.85,ESE,113,0.7,2.5,80,0.00,,,0.00,WUHU216HW,2014-09-23 06:39:00,
2014-09-23 02:41:00,62.8,56.5,29.85,ESE,113,1.1,2.5,80,0.00,,,0.00,WUHU216HW,2014-09-23 06:41:00,
2014-09-23 02:42:00,62.8,56.2,29.85,East,90,1.1,2.5,79,0.00,,,0.00,WUHU216HW,2014-09-23 06:42:00,
2014-09-23 02:44:00,62.8,56.2,29.85,ESE,113,0.9,2.5,79,0.00,,,0.00,WUHU216HW,2014-09-23 06:44:00,
2014-09-23 02:46:00,62.8,56.2,29.85,ESE,113,1.1,2.5,79,0.00,,,0.00,WUHU216HW,2014-09-23 06:46:00,
2014-09-23 02:47:00,62.8,56.2,29.85,ENE,68,0.4,1.8,79,0.00,,,0.00,WUHU216HW,2014-09-23 06:47:00,
2014-09-23 02:49:00,62.8,56.2,29.85,ENE,68,0.2,1.8,79,0.00,,,0.00,WUHU216HW,2014-09-23 06:49:00,
2014-09-23 02:51:00,62.8,56.2,29.85,ESE,113,0.4,1.8,79,0.00,,,0.00,WUHU216HW,2014-09-23 06:51:00,
2014-09-23 02:52:00,62.8,56.2,29.85,SE,135,0.4,1.8,79,0.00,,,0.00,WUHU216HW,2014-09-23 06:52:00,
2014-09-23 02:53:00,62.8,56.2,29.85,SE,135,0.4,1.8,79,0.00,,,0.00,WUHU216HW,2014-09-23 06:53:00,
2014-09-23 02:54:00,62.8,56.2,29.85,East,90,0.9,1.8,79,0.00,,,0.00,WUHU216HW,2014-09-23 06:54:00,
2014-09-23 02:56:00,62.8,56.2,29.85,East,90,1.1,1.8,79,0.00,,,0.00,WUHU216HW,2014-09-23 06:56:00,
2014-09-23 02:57:00,62.8,56.2,29.85,East,90,1.1,1.8,79,0.00,,,0.00,WUHU216HW,2014-09-23 06:57:00,
2014-09-23 02:58:00,62.8,56.2,29.85,ESE,113,1.1,1.8,79,0.00,,,0.00,WUHU216HW,2014-09-23 06:58:00,
2014-09-23 02:59:00,62.8,56.2,29.85,East,90,1.1,1.8,79,0.00,,,0.00,WUHU216HW,2014-09-23 06:59:00,
2014-09-23 03:01:00,62.8,56.2,29.85,ENE,68,0.9,1.6,79,0.00,,,0.00,WUHU216HW,2014-09-23 07:01:00,
2014-09-23 03:02:00,62.8,56.2,29.85,East,90,1.3,1.6,79,0.00,,,0.00,WUHU216HW,2014-09-23 07:02:00,
2014-09-23 03:03:00,62.8,55.8,29.85,ESE,113,1.1,1.8,78,0.00,,,0.00,WUHU216HW,2014-09-23 07:03:00,
2014-09-23 03:04:00,62.8,55.8,29.85,East,90,0.7,1.8,78,0.00,,,0.00,WUHU216HW,2014-09-23 07:04:00,
2014-09-23 03:07:00,62.6,55.3,29.85,SE,135,1.1,1.8,77,0.00,,,0.00,WUHU216HW,2014-09-23 07:07:00,
2014-09-23 03:08:00,62.6,55.3,29.85,ESE,113,0.9,1.8,77,0.00,,,0.00,WUHU216HW,2014-09-23 07:08:00,
2014-09-23 03:09:00,62.6,55.3,29.85,ESE,113,0.9,1.8,77,0.00,,,0.00,WUHU216HW,2014-09-23 07:09:00,
2014-09-23 03:12:00,62.6,54.9,29.85,NE,45,0.4,1.8,76,0.00,,,0.00,WUHU216HW,2014-09-23 07:12:00,
2014-09-23 03:13:00,62.6,55.3,29.85,ENE,68,0.9,1.3,77,0.00,,,0.00,WUHU216HW,2014-09-23 07:13:00,
2014-09-23 03:14:00,62.6,54.9,29.85,East,90,0.4,1.3,76,0.00,,,0.00,WUHU216HW,2014-09-23 07:14:00,
2014-09-23 03:17:00,62.6,54.2,29.85,ENE,68,0.4,1.8,74,0.00,,,0.00,WUHU216HW,2014-09-23 07:17:00,
2014-09-23 03:18:00,62.6,54.5,29.85,NE,45,0.7,1.8,75,0.00,,,0.00,WUHU216HW,2014-09-23 07:18:00,
2014-09-23 03:19:00,62.6,54.5,29.85,ESE,113,0.0,1.8,75,0.00,,,0.00,WUHU216HW,2014-09-23 07:19:00,
2014-09-23 03:22:00,62.6,54.5,29.85,NE,45,0.4,1.8,75,0.00,,,0.00,WUHU216HW,2014-09-23 07:22:00,
2014-09-23 03:23:00,62.6,54.5,29.85,SSE,158,0.9,1.8,75,0.00,,,0.00,WUHU216HW,2014-09-23 07:23:00,
2014-09-23 03:25:00,62.6,54.9,29.86,ENE,68,0.7,1.8,76,0.00,,,0.00,WUHU216HW,2014-09-23 07:25:00,
2014-09-23 03:28:00,62.6,54.9,29.86,East,90,1.1,1.8,76,0.00,,,0.00,WUHU216HW,2014-09-23 07:28:00,
2014-09-23 03:29:00,62.6,54.5,29.86,ESE,113,1.1,1.8,75,0.00,,,0.00,WUHU216HW,2014-09-23 07:29:00,
2014-09-23 03:30:00,62.6,54.5,29.86,East,90,0.0,1.6,75,0.00,,,0.00,WUHU216HW,2014-09-23 07:30:00,
2014-09-23 03:33:00,62.5,54.0,29.86,ENE,68,0.9,1.6,74,0.00,,,0.00,WUHU216HW,2014-09-23 07:33:00,
2014-09-23 03:34:00,62.5,54.0,29.86,ENE,68,1.1,1.6,74,0.00,,,0.00,WUHU216HW,2014-09-23 07:34:00,
2014-09-23 03:35:00,62.5,54.0,29.86,ENE,68,0.4,1.6,74,0.00,,,0.00,WUHU216HW,2014-09-23 07:35:00,
2014-09-23 03:38:00,62.5,54.0,29.87,East,90,0.0,1.6,74,0.00,,,0.00,WUHU216HW,2014-09-23 07:38:00,
2014-09-23 03:39:00,62.5,54.0,29.87,SE,135,0.0,1.6,74,0.00,,,0.00,WUHU216HW,2014-09-23 07:39:00,
2014-09-23 03:40:00,62.5,54.0,29.87,East,90,0.0,1.1,74,0.00,,,0.00,WUHU216HW,2014-09-23 07:40:00,
2014-09-23 03:43:00,62.3,54.2,29.87,East,90,0.4,1.1,75,0.00,,,0.00,WUHU216HW,2014-09-23 07:43:00,
2014-09-23 03:44:00,62.3,54.2,29.87,East,90,0.0,1.1,75,0.00,,,0.00,WUHU216HW,2014-09-23 07:44:00,
2014-09-23 03:46:00,62.3,54.2,29.87,ENE,68,0.9,1.1,75,0.00,,,0.00,WUHU216HW,2014-09-23 07:46:00,
2014-09-23 03:48:00,62.3,54.2,29.87,ENE,68,0.4,1.1,75,0.00,,,0.00,WUHU216HW,2014-09-23 07:48:00,
2014-09-23 03:49:00,62.3,54.2,29.87,ENE,68,0.9,1.1,75,0.00,,,0.00,WUHU216HW,2014-09-23 07:49:00,
2014-09-23 03:51:00,62.1,54.1,29.87,ENE,68,0.9,1.3,75,0.00,,,0.00,WUHU216HW,2014-09-23 07:51:00,
2014-09-23 03:53:00,62.1,54.1,29.86,ESE,113,0.2,1.3,75,0.00,,,0.00,WUHU216HW,2014-09-23 07:53:00,
2014-09-23 03:54:00,62.1,54.1,29.86,East,90,1.1,1.3,75,0.00,,,0.00,WUHU216HW,2014-09-23 07:54:00,
2014-09-23 03:56:00,61.9,53.9,29.86,ESE,113,0.7,1.3,75,0.00,,,0.00,WUHU216HW,2014-09-23 07:56:00,
2014-09-23 03:58:00,61.9,53.9,29.87,ESE,113,0.7,1.3,75,0.00,,,0.00,WUHU216HW,2014-09-23 07:58:00,
2014-09-23 03:59:00,61.9,53.9,29.87,SE,135,0.7,1.3,75,0.00,,,0.00,WUHU216HW,2014-09-23 07:59:00,
2014-09-23 04:01:00,61.7,53.7,29.87,East,90,0.4,1.1,75,0.00,,,0.00,WUHU216HW,2014-09-23 08:01:00,
2014-09-23 04:04:00,61.6,53.6,29.87,East,90,0.9,1.1,75,0.00,,,0.00,WUHU216HW,2014-09-23 08:04:00,
2014-09-23 04:06:00,61.6,53.6,29.87,ESE,113,0.2,1.1,75,0.00,,,0.00,WUHU216HW,2014-09-23 08:06:00,
2014-09-23 04:09:00,61.4,53.4,29.87,East,90,0.0,1.1,75,0.00,,,0.00,WUHU216HW,2014-09-23 08:09:00,
2014-09-23 04:10:00,61.4,53.4,29.87,East,90,0.4,1.1,75,0.00,,,0.00,WUHU216HW,2014-09-23 08:10:00,
2014-09-23 04:11:00,61.4,53.4,29.87,East,90,0.0,0.9,75,0.00,,,0.00,WUHU216HW,2014-09-23 08:11:00,
2014-09-23 04:14:00,61.2,53.3,29.87,ESE,113,0.0,0.9,75,0.00,,,0.00,WUHU216HW,2014-09-23 08:14:00,
2014-09-23 04:15:00,61.2,53.7,29.87,SE,135,0.0,0.7,76,0.00,,,0.00,WUHU216HW,2014-09-23 08:15:00,
2014-09-23 04:16:00,61.2,53.7,29.88,SE,135,0.0,0.7,76,0.00,,,0.00,WUHU216HW,2014-09-23 08:16:00,
2014-09-23 04:19:00,61.0,53.5,29.88,SE,135,0.0,0.7,76,0.00,,,0.00,WUHU216HW,2014-09-23 08:19:00,
2014-09-23 04:20:00,61.0,53.5,29.88,East,90,0.0,0.7,76,0.00,,,0.00,WUHU216HW,2014-09-23 08:20:00,
2014-09-23 04:21:00,61.0,53.5,29.88,East,90,0.0,0.7,76,0.00,,,0.00,WUHU216HW,2014-09-23 08:21:00,
2014-09-23 04:24:00,61.0,53.5,29.88,ESE,113,0.0,0.7,76,0.00,,,0.00,WUHU216HW,2014-09-23 08:24:00,
2014-09-23 04:25:00,61.0,53.5,29.88,ESE,113,0.0,0.7,76,0.00,,,0.00,WUHU216HW,2014-09-23 08:25:00,
2014-09-23 04:26:00,61.0,53.5,29.88,East,90,0.4,0.4,76,0.00,,,0.00,WUHU216HW,2014-09-23 08:26:00,
2014-09-23 04:29:00,60.8,53.3,29.88,NE,45,0.0,0.9,76,0.00,,,0.00,WUHU216HW,2014-09-23 08:29:00,
2014-09-23 04:30:00,60.8,53.3,29.89,NE,45,0.0,0.9,76,0.00,,,0.00,WUHU216HW,2014-09-23 08:30:00,
2014-09-23 04:31:00,60.8,53.3,29.88,ENE,68,0.0,0.9,76,0.00,,,0.00,WUHU216HW,2014-09-23 08:31:00,
2014-09-23 04:34:00,60.8,53.3,29.88,SE,135,0.0,0.9,76,0.00,,,0.00,WUHU216HW,2014-09-23 08:34:00,
2014-09-23 04:35:00,60.8,53.3,29.88,SE,135,0.0,0.9,76,0.00,,,0.00,WUHU216HW,2014-09-23 08:35:00,
2014-09-23 04:36:00,60.8,53.3,29.88,SE,135,0.0,0.9,76,0.00,,,0.00,WUHU216HW,2014-09-23 08:36:00,
2014-09-23 04:39:00,60.8,53.3,29.88,East,90,0.0,0.7,76,0.00,,,0.00,WUHU216HW,2014-09-23 08:39:00,
2014-09-23 04:40:00,60.8,53.3,29.88,East,90,0.0,0.7,76,0.00,,,0.00,WUHU216HW,2014-09-23 08:40:00,
2014-09-23 04:42:00,60.8,53.3,29.88,ENE,68,0.0,0.7,76,0.00,,,0.00,WUHU216HW,2014-09-23 08:42:00,
2014-09-23 04:44:00,60.8,53.3,29.88,ENE,68,0.4,0.9,76,0.00,,,0.00,WUHU216HW,2014-09-23 08:44:00,
2014-09-23 04:45:00,60.8,53.3,29.88,ENE,68,0.7,0.9,76,0.00,,,0.00,WUHU216HW,2014-09-23 08:45:00,